This is the latest recevied weather packets stored in our database for station/object DO1SN-13. If no packets are shown the sender has not sent any weather packets the latest 10 day(s).
| Time | Temp. | Humidity | Pressure | Rain* | Wind** | Luminosity | Snow |
|---|---|---|---|---|---|---|---|
| 1787808412 | 21.67° C | - | 1017.3 hPa | 0 mm | - | - | - |
| 1787808048 | 20.56° C | - | 1017.3 hPa | 0 mm | - | - | - |
| 1787807684 | 20.56° C | - | 1017.4 hPa | 0 mm | - | - | - |
| 1787807319 | 20.56° C | - | 1017.4 hPa | 0 mm | - | - | - |
| 1787806955 | 20.56° C | - | 1017.3 hPa | 0 mm | - | - | - |
| 1787806590 | 21.11° C | - | 1017.6 hPa | 0 mm | - | - | - |
| 1787806226 | 20.56° C | - | 1017.7 hPa | 0 mm | - | - | - |
| 1787805862 | 20.56° C | - | 1017.6 hPa | 0 mm | - | - | - |
| 1787805498 | 21.11° C | - | 1017.7 hPa | 0 mm | - | - | - |
| 1787805134 | 20.56° C | - | 1017.7 hPa | 0 mm | - | - | - |
| 1787804770 | 20.56° C | - | 1017.6 hPa | 0 mm | - | - | - |
| 1787804405 | 21.11° C | - | 1017.6 hPa | 0 mm | - | - | - |
| 1787804041 | 21.11° C | - | 1017.5 hPa | 0 mm | - | - | - |
| 1787803677 | 21.67° C | - | 1017.4 hPa | 0 mm | - | - | - |
| 1787803313 | 21.67° C | - | 1017.3 hPa | 0 mm | - | - | - |
| 1787802949 | 21.67° C | - | 1017.2 hPa | 0 mm | - | - | - |
| 1787802585 | 21.67° C | - | 1017.2 hPa | 0 mm | - | - | - |
| 1787802221 | 21.11° C | - | 1017.3 hPa | 0 mm | - | - | - |
| 1787801857 | 21.67° C | - | 1017.2 hPa | 0 mm | - | - | - |
| 1787801492 | 21.67° C | - | 1017.2 hPa | 0 mm | - | - | - |
| 1787801143 | 21.67° C | - | 1017.3 hPa | 0 mm | - | - | - |
| 1787800764 | 21.67° C | - | 1017.4 hPa | 0 mm | - | - | - |
| 1787800400 | 21.11° C | - | 1017.4 hPa | 0 mm | - | - | - |
| 1787800036 | 21.11° C | - | 1017.7 hPa | 0 mm | - | - | - |
| 1787799672 | 21.67° C | - | 1017.7 hPa | 0 mm | - | - | - |
* Rain latest hour (hover to see other rain measurements)
** Current wind speed in m/s (hover to see current wind gust speed)